Pocatello, ID

2:35 AM MST on February 22, 2017 (GMT -0700)
Pocatello Regional

Weather History for KPIH - July, 2015

Change the Weather History Date:

Wednesday, July 15, 2015

  Actual Average Record
Temperature  
Mean Temperature 71 °F 70 °F  
Max Temperature 84 °F 88 °F 101 °F (1935)
Min Temperature 57 °F 52 °F 41 °F (1981)
Degree Days  
Heating Degree Days 0 1  
Month to date heating degree days 2 16  
Since 1 June heating degree days 30 147  
Since 1 July heating degree days 2 16  
Cooling Degree Days 6 6  
Month to date cooling degree days 114 70  
Year to date cooling degree days 253 121  
Since 1 June cooling degree days 249 116  
Growing Degree Days 20 (Base 50)    
Moisture  
Dew Point 53 °F    
Average Humidity 58    
Maximum Humidity 90    
Minimum Humidity 25    
Precipitation  
Precipitation 0.17 in 0.03 in 0.17 in (2015)
Month to date precipitation 0.55 0.30  
Year to date precipitation 5.46 7.12  
Snow  
Snow 0.00 in - - ()
Month to date snowfall 0.0  
Since 1 June snowfall 0.0  
Since 1 July snowfall 0.0  
Snow Depth 0.00 in    
Sea Level Pressure  
Sea Level Pressure 29.93 in    
Wind  
Wind Speed 9 mph (West)    
Max Wind Speed 23 mph    
Max Gust Speed 29 mph    
Visibility 10 miles    
Events Rain , Thunderstorm    
T = Trace of Precipitation, MM = Missing Value Source: NWS Daily Summary

Daily Weather History Graph

Daily Weather History Graph

Search for Another Location

Airport or City:

Trip Planner

Search our weather history database for the weather conditions in past years. The results will help you decide how hot, cold, wet, or windy it might be!

Date:

Astronomy

Jul. 15, 2015 Rise Set
Actual Time 6:05 AM MDT 9:07 PM MDT
Civil Twilight 5:30 AM MDT 9:41 PM MDT
Nautical Twilight 4:47 AM MDT 10:24 PM MDT
Astronomical Twilight 3:55 AM MDT 11:15 PM MDT
Moon 5:57 AM MDT (7/15) 8:39 PM MDT (7/15)
Length of Visible Light 16h 10m
Length of Day
15h 02m
Waning Crescent, 0% of the Moon is Illuminated
Jul 15
Waning Crescent
Jul 15
New
Jul 23
First Quarter
Jul 31
Full
Aug 6
Last Quarter

Hourly Weather History & Observations

Time (MDT) Temp. Dew Point Humidity Pressure Visibility Wind Dir Wind Speed Gust Speed Precip Events Conditions
12:53 AM 66.0 °F 43.0 °F 43% 29.91 in 10.0 mi West 9.2 mph - N/A   Scattered Clouds
1:53 AM 63.0 °F 53.1 °F 70% 29.92 in 10.0 mi NNW 6.9 mph - N/A   Scattered Clouds
2:53 AM 63.0 °F 52.0 °F 67% 29.96 in 10.0 mi SSW 8.1 mph - N/A   Overcast
3:53 AM 57.9 °F 57.9 °F 100% 29.94 in 5.0 mi SE 9.2 mph - 0.12 in Rain Rain
4:29 AM 57.9 °F 57.9 °F 100% 30.05 in 10.0 mi Variable 5.8 mph - 0.02 in Thunderstorm Overcast
4:50 AM 59.0 °F 55.4 °F 88% 30.05 in 10.0 mi NE 6.9 mph - 0.02 in   Overcast
4:53 AM 59.0 °F 55.9 °F 90% 29.92 in 10.0 mi NE 5.8 mph - 0.02 in   Overcast
5:16 AM 57.9 °F 57.0 °F 97% 30.08 in 10.0 mi West 9.2 mph - 0.00 in Rain , Thunderstorm Light Rain
5:53 AM 57.9 °F 57.9 °F 100% 29.95 in 10.0 mi South 6.9 mph - 0.03 in Rain Light Rain
6:53 AM 60.1 °F 55.0 °F 83% 29.91 in 10.0 mi East 11.5 mph - 0.00 in   Overcast
7:53 AM 63.0 °F 53.1 °F 70% 29.92 in 10.0 mi WSW 11.5 mph - 0.00 in   Partly Cloudy
8:53 AM 60.1 °F 57.0 °F 90% 29.94 in 10.0 mi North 4.6 mph - 0.00 in   Scattered Clouds
9:53 AM 63.0 °F 57.0 °F 81% 29.95 in 10.0 mi NE 3.5 mph - N/A   Scattered Clouds
10:53 AM 69.1 °F 53.1 °F 57% 29.94 in 10.0 mi WSW 8.1 mph - N/A   Clear
11:53 AM 73.0 °F 54.0 °F 51% 29.93 in 10.0 mi Variable 5.8 mph - N/A   Partly Cloudy
12:53 PM 75.9 °F 52.0 °F 43% 29.92 in 10.0 mi West 9.2 mph - N/A   Partly Cloudy
1:53 PM 77.0 °F 53.1 °F 43% 29.91 in 10.0 mi WNW 10.4 mph - N/A   Scattered Clouds
2:53 PM 80.1 °F 52.0 °F 38% 29.89 in 10.0 mi West 12.7 mph - N/A   Scattered Clouds
3:53 PM 81.0 °F 46.9 °F 30% 29.86 in 10.0 mi WSW 13.8 mph 25.3 mph N/A   Scattered Clouds
4:53 PM 84.0 °F 45.0 °F 25% 29.85 in 10.0 mi WSW 16.1 mph 23.0 mph N/A   Scattered Clouds
5:53 PM 78.1 °F 51.1 °F 39% 29.88 in 10.0 mi NNE 10.4 mph - N/A   Scattered Clouds
6:53 PM 77.0 °F 51.1 °F 40% 29.87 in 10.0 mi ENE 13.8 mph - N/A   Scattered Clouds
7:53 PM 75.9 °F 50.0 °F 40% 29.86 in 10.0 mi ENE 8.1 mph - N/A   Partly Cloudy
8:53 PM 72.0 °F 52.0 °F 49% 29.88 in 10.0 mi Calm Calm - N/A   Partly Cloudy
9:53 PM 66.9 °F 53.1 °F 61% 29.90 in 10.0 mi SSW 3.5 mph - N/A   Clear
10:53 PM 60.1 °F 54.0 °F 80% 29.91 in 10.0 mi WNW 6.9 mph - N/A   Clear
11:53 PM 61.0 °F 53.1 °F 75% 29.91 in 10.0 mi SSW 11.5 mph - N/A   Clear